Probability
0 0 0 0 0 0 0 0 0 0 0 0 0 0 0 0 0 0 0 0 0 0 0 0 0 0 0 0 0 0 0 0 0 0 0 0 0 0 0 0 0 0 0 0
0 0 0 0 0 0 0 0 0 0 0 0 0 0 0 0 0 0 0 0 0 0 0 0 0 0 0 0 0 0 0 0 0 0 0 0 0 0 0 0 0 0 0 0
0 0 0 0 0 0 0 0 0 0 0 0 0 0 0 0 0 0 0 0 0 0 0 0 0 0 0 0 0 0 0 0 0 0 0 0 0 0 0 0 0 0 0 0
0 0 0 0 0 0 0 0 0 0 0 0 0 0 0 0 0 0 0 0 0 0 0 0 0 0 0 0 0 0 0 0 0 0 0 0 0 0 0 0 0 0 0 0
0 0 0 0 0 0 0 0 0 0 0 0 0 0 0 0 0 0 0 0 0 0 0 0 0 0 0 0 0 0 0 0 0 0 0 0 0 0 0 0 0 0 0 0
0 0 0 0 0 0 0 0 0 0 0 0 0 0 0 0 0 0 0 0 0 0 0 0 0 0 0 0 0 0 0 0 0 0 0 0 0 0 0 0 0 0 0 0
0 0 0 0 0 0 0 0 0 0 0 0 0 0 0 0 0 0 0 0 0 0 0 0 0 0 0 0 0 0 0 0 0 0 0 0 0 0 0 0 0 0 0 0
0 0 0 0 0 0 0 0 0 0 0 0 0 0 0 0 0 0 0 0 0 0 0 0 0 0 0 0 0 0 0 0 0 0 0 0 0 0 0 0 0 0 0 0
0 0 0 0 0 0 0 0 0 0 0 0 0 0 0 0 0 0 0 0 0 0 0 0 0 0 0 0 0 0 0 0 0 0 0 0 0 0 0 0 0 0 0 0
0 0 0 0 0 0 0 0 0 0 0 0 0 0 0 0 0 0 0 0 0 0 0 0 0 0 0 0 0 0 0 0 0 0 0 0 0 0 0 0 0 0 0 0
0 0 0 0 0 0 0 0 0 0 0 0 0 0 0 0 0 0 0 0 0 0 0 0 0 0 0 0 0 0 0 0 0 0 0 0 0 0 0 0 0 0 0 0
0 0 0 0 0 0 0 0 0 0 0 0 0 0 0 0 0 0 0 0 0 0 0 0 0 0 0 0 0 0 0 0 0 0 0 0 0 0 0 0 0 0 0 0
0 0 0 0 0 0 0 0 0 0 0 0 0 0 0 0 0 0 0 0 0 0 0 0 0 0 0 0 0 0 0 0 0 0 0 0 0 0 0 0 0 0 0 0
0 0 0 0 0 0 0 0 0 0 0 0 0 0 0 0 0 0 0 0 0 0 0 0 0 0 0 0 0 0 0 0 0 0 0 0 0 0 0 0 0 0 0 0
0 0 0 0 0 0 0 0 0 0 0 0 0 0 0 0 0 0 0 0 0 0 0 0 0 0 0 0 0 0 0 0 0 0 0 0 0 0 0 0 0 0 0 0
0 0 0 0 0 0 0 0 0 0 0 0 0 0 0 0 0 0 0 0 0 0 0 0 0 0 0 0 0 0 0 0 0 0 0 0 0 0 0 0 0 0 0 0
0 0 0 0 0 0 0 0 0 0 0 0 0 0 0 0 0 0 0 0 0 0 0 0 0 0 0 0 0 0 0 0 0 0 0 0 0 0 0 0 0 0 0 0
0 0 0 0 0 0 0 0 0 0 0 0 0 0 0 0 0 0 0 0 0 0 0 0 0 0 0 0 0 0 0 0 0 0 0 0 0 0 0 0 0 0 0 0
0 0 0 0 0 0 0 0 0 0 0 0 0 0 0 0 0 0 0 0 0 0 0 0 0 0 0 0 0 0 0 0 0 0 0 0 0 0 0 0 0 0 0 0
0 0 0 0 0 0 0 0 0 0 0 0 0 0 0 0 0 0 0 0 0 0 0 0 0 0 0 0 0 0 0 0 0 0 0 0 0 0 0 0 0 0 0 0
0 0 0 0 0 0 0 0 0 0 0 0 0 0 0 0 0 0 0 0 0 0 0 0 0 0 0 0 0 0 0 0 0 0 0 0 0 0 0 0 0 0 0 0
0 0 0 0 0 0 0 0 0 0 0 0 0 0 0 0 0 0 0 0 0 0 0 0 0 0 0 0 0 0 0 0 0 0 0 0 0 0 0 0 0 0 0 0
0 0 0 0 0 0 0 0 0 0 0 0 0 0 0 0 0 0 0 0 0 0 0 0 0 0 0 0 0 0 0 0 0 0 0 0 0 0 0 0 0 0 0 0
0 0 0 0 0 0 0 0 0 0 0 0 0 0 0 0 0 0 0 0 0 0 0 0 0 0 0 0 0 0 0 0 0 0 0 0 0 0 0 0 0 0 0 0
0 0 0 0 0 0 0 0 0 0 0 0 0 0 0 0 0 0 0 0 0 0 0 0 0 0 0 0 0 0 0 0 0 0 0 0 0 0 0 0 0 0 0 0
0 0 0 0 0 0 0 0 0 0 0 0 0 0 0 0 0 0 0 0 0 0 0 0 0 0 0 0 0 0 0 0 0 0 0 0 0 0 0 0 0 0 0 0
0 0 0 0 0 0 0 0 0 0 0 0 0 0 0 0 0 0 0 0 0 0 0 0 0 0 0 0 0 0 0 0 0 0 0 0 0 0 0 0 0 0 0 0
Height
5637 5643 5649 5655 5661 5665 5669 5675 5680 5686 5690 5695 5697 5698 5700 5701 5702 5704 5705 5705 5706 5706 5706 5705 5704 5703 5702 5700 5699 5698 5696 5694 5693 5691 5689 5687 5684 5682 5680 5677 5675 5672 5669 5665
5626 5632 5638 5643 5650 5655 5661 5666 5671 5676 5681 5686 5687 5688 5690 5692 5694 5695 5696 5697 5697 5697 5697 5696 5695 5694 5693 5692 5690 5689 5687 5686 5683 5682 5680 5677 5675 5673 5670 5668 5665 5662 5658 5655
5617 5622 5625 5631 5642 5647 5653 5659 5663 5668 5676 5677 5678 5679 5682 5683 5685 5686 5687 5688 5688 5688 5688 5687 5687 5686 5684 5683 5682 5680 5678 5677 5675 5673 5671 5668 5666 5663 5661 5658 5655 5652 5648 5645
5607 5612 5615 5630 5636 5640 5645 5651 5656 5660 5664 5667 5669 5671 5672 5674 5675 5677 5678 5679 5679 5679 5679 5679 5678 5677 5676 5674 5673 5671 5669 5667 5665 5663 5661 5659 5656 5654 5651 5648 5645 5642 5638 5634
5597 5602 5610 5619 5627 5632 5637 5642 5648 5651 5654 5657 5659 5661 5663 5665 5666 5668 5669 5670 5670 5671 5670 5670 5669 5668 5667 5666 5664 5662 5660 5659 5657 5654 5652 5650 5647 5644 5641 5638 5635 5632 5628 5624
5589 5594 5601 5615 5621 5624 5628 5632 5639 5642 5645 5648 5649 5652 5657 5657 5658 5659 5660 5661 5661 5661 5661 5661 5660 5659 5658 5657 5655 5654 5652 5650 5647 5645 5643 5640 5638 5635 5632 5628 5625 5621 5617 5612
5581 5586 5595 5606 5610 5614 5619 5628 5631 5633 5636 5638 5641 5645 5647 5647 5649 5650 5651 5652 5652 5652 5652 5652 5651 5650 5649 5648 5646 5645 5643 5640 5638 5636 5633 5631 5628 5625 5622 5618 5615 5611 5606 5601
5573 5580 5592 5598 5601 5606 5613 5618 5622 5624 5627 5630 5633 5635 5637 5639 5640 5641 5642 5643 5644 5644 5644 5643 5642 5641 5640 5639 5637 5635 5633 5631 5629 5627 5624 5621 5618 5615 5611 5608 5604 5599 5594 5589
5569 5578 5585 5589 5593 5598 5603 5608 5612 5615 5619 5622 5624 5626 5628 5630 5631 5632 5633 5634 5634 5635 5634 5634 5633 5632 5631 5630 5628 5626 5624 5622 5620 5617 5614 5611 5608 5605 5601 5597 5593 5588 5583 5578
5561 5569 5576 5580 5584 5590 5595 5599 5603 5607 5610 5613 5616 5618 5620 5621 5623 5624 5625 5625 5626 5626 5625 5625 5624 5623 5622 5620 5619 5617 5615 5612 5610 5607 5604 5601 5598 5594 5590 5586 5581 5576 5571 5566
5553 5561 5566 5572 5577 5582 5586 5590 5594 5598 5601 5604 5607 5609 5611 5613 5614 5615 5616 5617 5617 5617 5616 5616 5615 5614 5613 5611 5609 5608 5605 5603 5600 5597 5594 5591 5587 5583 5579 5574 5569 5564 5559 5553
5548 5555 5559 5565 5569 5573 5578 5582 5586 5590 5593 5596 5599 5601 5603 5604 5606 5607 5607 5608 5608 5608 5607 5607 5606 5605 5603 5602 5600 5598 5595 5593 5590 5587 5584 5580 5576 5572 5567 5562 5557 5551 5546 5540
5540 5544 5550 5555 5559 5564 5569 5574 5577 5581 5584 5588 5590 5593 5594 5596 5597 5598 5599 5599 5599 5599 5598 5597 5596 5595 5594 5592 5590 5588 5585 5583 5580 5576 5573 5569 5565 5561 5556 5550 5544 5539 5533 5526
5530 5535 5541 5547 5552 5557 5561 5565 5569 5573 5576 5579 5582 5584 5586 5587 5588 5589 5590 5590 5590 5589 5589 5588 5587 5586 5584 5582 5580 5578 5575 5572 5569 5566 5562 5558 5553 5549 5544 5539 5533 5526 5519 5512
5523 5528 5534 5539 5544 5549 5553 5557 5561 5564 5568 5571 5573 5575 5577 5578 5579 5580 5581 5581 5580 5580 5579 5579 5577 5576 5574 5572 5570 5567 5564 5561 5558 5554 5550 5546 5542 5537 5531 5526 5520 5514 5507 5500
5516 5521 5526 5531 5536 5541 5545 5549 5553 5556 5559 5562 5564 5566 5568 5569 5570 5571 5571 5571 5571 5571 5570 5569 5568 5566 5564 5562 5559 5557 5554 5550 5547 5543 5539 5534 5529 5524 5519 5513 5507 5501 5494 5486
5508 5513 5519 5524 5528 5533 5537 5541 5544 5547 5550 5553 5555 5557 5559 5560 5561 5562 5562 5562 5562 5561 5560 5559 5558 5556 5554 5551 5549 5546 5543 5539 5535 5531 5527 5522 5517 5512 5506 5500 5494 5487 5479 5471
5501 5506 5511 5516 5520 5524 5528 5531 5535 5538 5541 5543 5546 5548 5549 5551 5552 5552 5552 5552 5552 5551 5550 5549 5547 5545 5543 5541 5538 5535 5531 5528 5524 5519 5515 5510 5504 5499 5493 5486 5480 5472 5465 5456
5493 5498 5503 5507 5512 5516 5519 5523 5526 5528 5531 5534 5536 5538 5540 5541 5542 5543 5542 5542 5542 5541 5540 5538 5537 5535 5532 5529 5527 5523 5520 5516 5512 5507 5502 5497 5491 5486 5479 5472 5465 5458 5449 5441
5486 5491 5495 5500 5504 5508 5511 5514 5517 5519 5522 5525 5527 5529 5530 5532 5532 5533 5533 5532 5532 5531 5529 5528 5526 5523 5521 5518 5515 5512 5508 5504 5500 5495 5489 5484 5478 5472 5465 5458 5450 5442 5434 5425
5479 5484 5488 5492 5496 5500 5503 5505 5508 5511 5513 5515 5517 5519 5521 5522 5522 5522 5522 5522 5521 5520 5518 5517 5514 5512 5510 5507 5503 5500 5496 5492 5487 5482 5476 5471 5464 5458 5451 5443 5435 5427 5419 5410
5472 5477 5481 5485 5488 5491 5494 5497 5500 5502 5504 5506 5508 5510 5511 5512 5512 5512 5512 5511 5510 5509 5507 5505 5503 5501 5498 5495 5491 5488 5483 5479 5474 5468 5463 5457 5450 5443 5436 5428 5420 5412 5404 5395
5465 5469 5473 5477 5480 5483 5486 5488 5491 5493 5495 5497 5499 5500 5501 5502 5502 5502 5502 5501 5499 5498 5496 5494 5492 5489 5486 5483 5479 5475 5470 5465 5460 5454 5448 5442 5435 5428 5420 5413 5405 5397 5389 5381
5458 5462 5466 5469 5473 5475 5478 5480 5483 5485 5486 5488 5489 5491 5491 5492 5492 5491 5491 5490 5488 5487 5485 5482 5480 5477 5474 5470 5466 5462 5457 5451 5446 5440 5434 5427 5420 5412 5405 5397 5389 5382 5374 5366
5451 5455 5458 5462 5465 5467 5470 5472 5474 5476 5477 5479 5480 5480 5481 5481 5481 5481 5480 5478 5477 5475 5473 5471 5468 5465 5461 5457 5453 5448 5443 5437 5431 5425 5418 5411 5404 5396 5389 5381 5374 5367 5360 5352
5444 5447 5451 5454 5456 5459 5461 5463 5465 5467 5468 5469 5470 5470 5471 5471 5470 5470 5469 5467 5466 5464 5461 5458 5455 5452 5448 5443 5439 5434 5428 5422 5416 5409 5403 5395 5388 5380 5373 5366 5359 5352 5346 5339
5437 5440 5443 5446 5448 5451 5453 5454 5456 5457 5458 5459 5460 5460 5460 5460 5459 5458 5457 5456 5454 5451 5449 5445 5442 5438 5434 5429 5424 5419 5413 5407 5400 5394 5387 5380 5373 5366 5359 5352 5345 5339 5332 5326
Wind_Speed
45 43 43 42 42 42 42 40 39 35 33 30 30 30 31 30 30 29 29 29 28 28 28 28 29 29 30 30 30 30 30 31 31 31 32 32 33 34 35 36 37 38 38 39
46 44 44 44 41 41 40 38 37 35 33 30 31 32 32 31 30 29 28 28 28 28 28 28 29 29 29 29 30 30 30 30 31 31 31 32 33 34 35 36 37 38 39 40
46 45 45 46 42 40 39 38 36 34 29 29 32 32 31 31 30 29 28 29 28 28 29 28 29 29 29 29 29 30 30 30 31 31 31 32 33 34 35 35 37 38 39 40
45 46 48 41 39 39 37 36 35 33 30 30 30 31 31 31 31 30 30 30 29 29 29 29 29 29 29 29 29 30 31 31 31 31 32 32 33 34 35 36 37 38 40 41
46 47 46 42 39 37 37 35 33 33 31 31 31 32 31 30 31 30 30 30 29 29 29 29 29 29 29 29 30 30 31 31 31 32 32 32 33 34 35 36 37 39 40 42
45 46 45 39 37 36 37 36 32 33 32 32 33 32 28 29 30 30 30 30 29 29 29 29 29 29 30 30 30 30 31 31 32 32 32 33 33 34 35 37 38 40 41 43
44 43 42 38 36 37 37 30 29 31 32 32 32 30 28 29 30 29 30 30 30 30 29 29 29 30 30 30 30 31 31 32 32 32 32 33 34 35 36 38 39 41 42 44
44 42 38 36 36 36 32 30 28 29 31 31 30 30 29 29 28 29 29 30 30 30 30 30 30 30 31 31 31 31 32 32 33 33 33 34 35 36 38 39 40 42 44 45
42 39 35 35 34 32 32 32 31 30 30 29 29 29 28 27 27 28 29 29 29 29 29 29 30 30 31 31 31 31 32 32 33 34 34 35 36 37 39 40 42 44 45 46
40 37 35 34 32 31 30 30 30 29 29 29 28 28 28 27 27 28 28 28 28 28 29 29 30 30 31 31 31 32 32 33 34 34 35 36 37 38 40 42 44 45 46 47
38 35 35 34 32 31 31 30 29 29 28 28 28 28 27 27 27 27 27 28 28 28 29 29 30 30 31 31 32 32 33 33 34 35 36 37 39 40 42 44 45 46 47 48
36 33 33 32 31 31 31 30 29 29 29 28 27 27 27 27 27 27 27 27 28 28 29 30 30 31 31 32 32 33 34 35 36 37 38 39 40 42 43 45 46 47 48 50
36 35 34 33 33 32 31 30 30 30 29 28 27 27 27 27 27 27 27 27 28 29 30 30 31 31 32 32 33 34 35 36 37 38 39 40 42 43 45 46 47 48 50 51
37 37 36 34 33 32 31 30 30 30 29 28 27 27 27 27 27 27 27 28 28 29 30 31 31 32 32 33 34 35 36 37 38 39 40 42 43 44 46 47 48 49 51 53
36 35 35 34 33 32 31 31 31 30 29 29 29 29 28 28 28 28 28 29 29 30 30 31 32 32 33 34 35 36 37 38 39 40 42 43 44 46 47 48 49 51 52 55
35 35 35 34 32 32 32 31 31 30 29 29 29 30 29 29 29 29 29 29 30 31 31 32 33 33 34 35 36 37 38 39 41 42 43 44 46 47 48 49 51 53 55 57
36 36 35 34 33 32 32 32 32 31 30 30 30 30 30 30 30 30 30 30 31 32 33 33 34 34 35 36 37 38 39 40 42 43 44 46 47 48 49 51 53 55 57 59
35 34 34 33 33 32 31 31 31 32 32 31 31 31 31 32 31 31 31 31 32 33 33 34 34 35 36 37 38 40 41 42 43 44 46 47 48 50 51 53 55 57 59 61
33 33 32 32 32 32 31 31 31 31 32 31 32 32 32 32 32 31 31 32 32 33 33 34 36 36 37 39 40 41 42 43 44 46 47 48 50 51 53 55 57 59 61 62
32 31 30 30 30 30 30 30 30 31 31 32 32 32 32 32 32 32 32 33 33 34 35 36 37 37 38 39 40 42 43 45 46 47 48 50 51 53 55 57 59 60 61 62
32 31 30 30 30 30 29 29 30 30 31 32 32 32 32 32 32 32 33 34 34 35 36 37 37 38 39 40 41 43 44 46 47 49 50 51 53 55 57 59 60 60 61 60
32 31 30 29 29 29 29 30 30 30 31 31 32 32 32 32 32 33 33 34 35 36 37 37 38 39 40 41 42 44 46 47 49 50 52 53 55 57 58 59 59 59 59 58
31 30 29 29 29 29 29 29 29 29 30 31 31 31 31 32 32 33 33 34 35 36 37 38 39 40 41 42 44 46 48 49 51 52 54 55 57 58 59 59 59 58 57 56
30 30 29 29 29 29 28 28 29 29 30 30 31 31 31 31 32 33 34 35 35 36 37 38 40 41 43 44 46 48 49 51 52 53 55 57 58 59 59 58 57 57 56 55
29 29 29 29 29 28 28 28 29 30 30 31 31 31 31 32 32 33 34 36 37 38 39 40 41 43 44 46 48 49 51 53 54 55 57 58 59 58 57 57 56 56 54 53
28 28 28 28 27 28 28 29 29 30 30 31 32 32 32 33 34 35 36 37 38 39 40 42 44 45 46 48 50 51 53 54 56 57 58 58 57 56 55 55 54 53 51 50
28 28 28 28 28 28 29 30 30 30 30 31 32 33 33 34 34 35 36 38 40 41 42 44 45 46 48 50 51 52 53 55 56 57 56 55 54 54 54 53 52 51 49 48
Wind_Direction
228 229 230 232 233 235 237 241 245 248 250 250 254 256 258 261 264 266 266 267 268 270 272 275 277 279 279 280 281 282 282 283 283 284 284 284 284 284 284 285 286 287 288 290
227 228 231 231 230 232 234 237 241 243 246 248 250 252 255 259 263 265 265 267 269 272 275 276 278 279 279 280 281 282 283 283 284 284 285 285 285 285 286 287 288 288 289 291
228 229 231 229 227 231 234 237 240 243 245 246 248 251 255 258 261 262 263 267 270 273 276 277 278 279 279 280 281 282 283 284 284 285 285 285 286 287 288 288 289 290 291 293
226 228 232 228 229 232 235 236 239 242 242 245 248 250 253 256 259 262 265 268 271 273 275 276 277 278 278 279 281 282 283 284 284 285 285 286 287 288 289 290 291 292 293 294
225 227 230 229 229 231 234 235 237 241 242 244 247 249 252 255 258 262 265 268 270 271 273 275 277 278 278 280 282 282 283 284 285 286 287 288 289 290 291 292 293 294 294 295
224 225 227 227 230 231 234 234 235 241 243 245 248 251 253 257 259 261 264 266 268 269 272 275 277 278 279 281 282 283 283 284 286 287 288 289 290 291 292 293 294 295 296 297
224 227 227 226 228 231 234 234 237 240 243 246 250 253 253 255 257 260 262 264 266 269 272 275 277 278 279 281 282 283 284 285 287 288 289 290 291 292 293 294 295 296 298 299
223 227 227 228 230 231 233 234 236 239 243 246 249 251 252 254 257 260 262 265 267 269 271 274 277 278 280 281 282 283 285 286 287 289 290 291 292 293 295 296 297 298 299 300
225 227 228 229 231 230 232 234 236 240 242 245 247 249 252 255 257 260 263 264 266 268 271 274 277 279 280 281 282 284 286 287 288 289 291 292 293 295 296 297 299 300 300 301
225 225 226 228 230 230 231 233 235 238 241 243 246 248 251 254 258 261 263 264 266 269 272 275 277 279 280 282 283 285 286 288 290 291 292 294 295 296 297 299 300 301 302 302
224 224 224 225 229 230 231 232 234 236 239 243 247 250 252 254 258 261 263 265 267 270 273 275 277 280 282 283 284 286 287 289 291 292 294 295 297 297 298 300 301 302 303 303
223 223 225 225 227 229 230 232 235 237 240 243 248 250 252 255 258 262 264 266 268 270 273 276 278 281 282 284 285 287 288 290 292 294 295 297 298 299 300 301 303 303 304 305
221 222 224 224 226 228 231 233 235 237 240 242 246 249 252 255 259 262 265 267 269 272 274 276 279 281 283 285 287 289 290 292 294 295 297 298 299 300 302 303 304 305 306 307
219 220 222 224 226 229 232 235 237 239 241 244 247 249 253 257 260 263 266 268 271 273 275 277 280 282 285 287 289 290 292 294 295 297 298 299 300 302 303 304 305 306 307 308
219 220 222 224 227 230 233 235 238 240 243 245 247 251 255 258 261 264 267 270 272 273 276 279 282 284 286 287 289 291 293 294 296 297 299 300 302 303 303 304 305 306 307 308
219 221 223 225 229 232 235 237 239 242 244 245 247 251 255 258 261 264 267 270 272 274 277 280 283 285 286 288 290 292 294 295 297 298 300 301 302 303 304 305 306 307 308 309
221 223 225 229 232 234 238 239 240 243 245 246 248 252 255 259 262 265 268 270 272 275 278 281 283 285 287 289 291 293 295 296 298 299 301 302 303 304 305 306 307 308 309 310
222 224 227 231 233 235 238 240 241 243 244 246 249 253 256 259 262 265 268 271 273 276 279 282 284 287 288 290 292 294 295 297 299 300 302 303 304 304 306 307 308 309 310 311
222 224 226 229 232 235 239 241 242 243 244 246 250 253 256 260 263 266 269 272 275 277 280 283 286 288 289 291 293 295 296 298 300 302 303 304 304 305 306 308 309 310 311 312
223 224 227 231 234 238 241 243 243 244 246 248 251 254 257 261 264 267 270 273 275 278 282 284 286 288 290 292 294 296 298 300 301 302 303 304 305 306 307 308 309 310 311 312
224 226 230 232 235 238 240 243 245 246 248 249 252 255 258 262 265 268 272 274 277 280 282 284 286 289 291 293 295 297 299 301 302 303 303 304 306 307 308 309 310 311 312 313
226 228 230 233 236 238 240 243 246 248 251 252 254 256 260 263 267 270 272 276 279 281 283 285 288 290 292 294 296 298 300 301 302 303 304 305 307 308 309 310 311 312 313 313
225 228 230 233 235 237 240 244 246 249 251 253 255 259 262 265 268 271 274 278 280 282 284 286 289 291 293 295 297 299 301 302 303 304 305 306 308 309 310 310 311 312 312 312
224 228 231 234 236 239 242 245 248 250 253 256 258 261 265 268 270 272 275 278 281 284 286 288 290 293 295 296 298 300 301 303 304 305 306 307 308 309 310 311 311 311 312 312
225 228 232 235 237 240 243 247 249 252 256 258 260 263 266 269 271 274 277 280 283 286 287 289 291 294 295 297 298 300 302 303 304 305 307 308 309 309 310 310 310 311 312 312
228 231 234 237 239 242 245 248 251 254 258 260 262 264 267 270 273 276 279 282 284 286 288 290 292 294 296 297 299 301 302 303 305 306 307 308 309 309 310 310 311 312 312 312
231 233 236 239 241 245 248 251 254 256 259 262 265 267 269 272 274 277 280 283 285 287 289 292 294 295 297 298 300 301 303 304 305 307 308 309 309 310 310 310 311 311 311 311